N22318 KLZU-GA04

Flight info

Callsign N22318
Flight time N/A
Altitude 10000
Route DCT
Aircraft C152/L-SF/C

Departure

Time 2026-05-08 15:28
Airport Gwinnett County Briscoe Field (KLZU)

Arrival

Time N/A
Airport Mallards Landing Airport (GA04)
Time Latitude Longitude Altitude Speed Heading
2026-05-08 15:03 33.98043 -83.96648 1033 ft 0 kts 97°
2026-05-08 15:06 33.98043 -83.96647 1033 ft 2 kts 97°
2026-05-08 15:07 33.98009 -83.96619 1032 ft 11 kts 174°
2026-05-08 15:07 33.97962 -83.96585 1030 ft 8 kts 112°
2026-05-08 15:07 33.97985 -83.96511 1028 ft 11 kts 65°
2026-05-08 15:07 33.98023 -83.96424 1026 ft 13 kts 63°
2026-05-08 15:08 33.98064 -83.96326 1025 ft 14 kts 65°
2026-05-08 15:08 33.98069 -83.96276 1023 ft 0 kts 117°
2026-05-08 15:08 33.98037 -83.96262 1021 ft 11 kts 162°
2026-05-08 15:09 33.98042 -83.96174 1016 ft 19 kts 72°
2026-05-08 15:09 33.98089 -83.96000 1006 ft 20 kts 68°
2026-05-08 15:09 33.98131 -83.95850 1000 ft 12 kts 73°
2026-05-08 15:09 33.98130 -83.95782 996 ft 7 kts 148°
2026-05-08 15:10 33.98082 -83.95757 994 ft 0 kts 154°
2026-05-08 15:11 33.98031 -83.95723 994 ft 2 kts 150°
2026-05-08 15:11 33.98027 -83.95721 994 ft 0 kts 160°
2026-05-08 15:26 33.98014 -83.95726 994 ft 14 kts 231°
2026-05-08 15:26 33.97917 -83.95977 1008 ft 50 kts 244°
2026-05-08 15:26 33.97722 -83.96447 1034 ft 72 kts 247°
2026-05-08 15:27 33.97526 -83.96924 1207 ft 56 kts 237°
2026-05-08 15:27 33.97331 -83.97330 1284 ft 58 kts 235°
2026-05-08 15:27 33.97118 -83.97717 1368 ft 56 kts 225°
2026-05-08 15:27 33.96836 -83.98115 1418 ft 65 kts 229°
2026-05-08 15:28 33.96594 -83.98536 1540 ft 65 kts 219°
2026-05-08 15:28 33.96265 -83.98800 1696 ft 55 kts 193°
2026-05-08 15:28 33.95922 -83.98874 1731 ft 53 kts 168°
2026-05-08 15:28 33.95612 -83.98761 1842 ft 45 kts 134°
2026-05-08 15:29 33.95784 -83.98577 1800 ft 69 kts 311°
2026-05-08 15:29 33.95663 -83.99050 1850 ft 68 kts 212°
2026-05-08 15:29 33.95289 -83.99393 1959 ft 60 kts 210°
2026-05-08 15:29 33.94938 -83.99577 2130 ft 50 kts 190°
2026-05-08 15:30 33.94583 -83.99797 2254 ft 59 kts 194°
2026-05-08 15:30 33.94223 -84.00052 2371 ft 60 kts 198°
2026-05-08 15:30 33.93835 -84.00269 2384 ft 65 kts 194°
2026-05-08 15:30 33.93410 -84.00468 2517 ft 69 kts 191°
2026-05-08 15:31 33.92953 -84.00642 2508 ft 71 kts 187°
2026-05-08 15:31 33.92451 -84.00799 2569 ft 75 kts 184°
2026-05-08 15:31 33.91953 -84.01026 2695 ft 73 kts 195°
2026-05-08 15:31 33.91467 -84.01246 2814 ft 72 kts 193°
2026-05-08 15:32 33.91024 -84.01416 2969 ft 68 kts 192°
2026-05-08 15:32 33.90617 -84.01587 2989 ft 84 kts 197°
2026-05-08 15:32 33.90519 -84.01638 2909 ft 92 kts 197°
2026-05-08 15:32 33.90152 -84.01819 2827 ft 103 kts 197°
2026-05-08 15:33 33.89840 -84.01959 2741 ft 112 kts 196°
2026-05-08 15:33 33.89751 -84.02003 2729 ft 113 kts 197°